Location: Unspecified
(51.5147°N, 7.4673°E)
Time: 02:28:08
(UTC+01:00)

Explorer 7 - Pass Details

Date: 21 February 2026
Orbit: 430 x 541 km, 50.2° (Epoch: 12 March)

Event Time Altitude Azimuth Distance (km) Brightness Sun altitude
Rises 16:11:31 0° 255° (WSW) 2,434 11.5 13.6°
Reaches altitude 10° 16:13:37 10° 252° (WSW) 1,579 10.9 13.4°
Maximum altitude 16:17:09 66° 170° (S) 508 7.0 12.9°
Drops below altitude 10° 16:20:49 10° 88° (E) 1,643 8.8 12.5°
Sets 16:23:02 0° 86° (E) 2,544 9.7 12.2°
